Bloomington, IN

12:31 AM EDT on September 21, 2017 (GMT -0400)
Monroe County

Weather History for KBMG - August, 2014

Change the Weather History Date:

Saturday, August 23, 2014

  Actual Average Record
Temperature  
Mean Temperature 80 °F 73 °F  
Max Temperature 89 °F 85 °F 100 °F (2007)
Min Temperature 71 °F 61 °F 46 °F (1997)
Degree Days  
Heating Degree Days 0 0  
Month to date heating degree days 1 0  
Since 1 June heating degree days 9 17  
Since 1 July heating degree days 6 2  
Cooling Degree Days 15 8  
Month to date cooling degree days 170 199  
Year to date cooling degree days 725 765  
Since 1 June cooling degree days 599 683  
Growing Degree Days 29 (Base 50)    
Moisture  
Dew Point 71 °F    
Average Humidity 82    
Maximum Humidity 100    
Minimum Humidity 63    
Precipitation  
Precipitation 0.91 in 0.12 in 0.91 in (2014)
Month to date precipitation 2.78 2.49  
Year to date precipitation 30.30 32.16  
Sea Level Pressure  
Sea Level Pressure 29.98 in    
Wind  
Wind Speed 4 mph (ESE)    
Max Wind Speed 18 mph    
Max Gust Speed 28 mph    
Visibility 4 miles    
Events Fog , Rain , Thunderstorm    
T = Trace of Precipitation, MM = Missing Value Source: NWS Daily Summary

Daily Weather History Graph

Daily Weather History Graph

Search for Another Location

Airport or City:

Trip Planner

Search our weather history database for the weather conditions in past years. The results will help you decide how hot, cold, wet, or windy it might be!

Date:

Astronomy

Aug. 23, 2014 Rise Set
Actual Time 7:06 AM EDT 8:30 PM EDT
Civil Twilight 6:38 AM EDT 8:58 PM EDT
Nautical Twilight 6:05 AM EDT 9:31 PM EDT
Astronomical Twilight 5:29 AM EDT 10:07 PM EDT
Moon 5:22 AM EDT (8/23) 7:14 PM EDT (8/23)
Length of Visible Light 14h 19m
Length of Day
13h 23m
Waning Crescent, 3% of the Moon is Illuminated
Aug 23
Waning Crescent
Aug 25
New
Sep 2
First Quarter
Sep 8
Full
Sep 15
Last Quarter

Hourly Weather History & Observations

Time (EDT) Temp. Heat Index Dew Point Humidity Pressure Visibility Wind Dir Wind Speed Gust Speed Precip Events Conditions
12:02 AM 73.9 °F - 72.0 °F 93% 30.02 in 0.2 mi Calm Calm - N/A Fog Fog
12:09 AM 73.9 °F - 72.0 °F 93% 30.02 in 0.8 mi Calm Calm - N/A   Scattered Clouds
12:18 AM 73.9 °F - 72.0 °F 93% 30.02 in 2.0 mi SW 3.5 mph - N/A   Mostly Cloudy
12:53 AM 75.0 °F - 72.0 °F 90% 29.99 in 8.0 mi Calm Calm - N/A   Partly Cloudy
1:53 AM 73.9 °F - 73.0 °F 97% 29.98 in 5.0 mi Calm Calm - N/A   Clear
2:30 AM 73.0 °F - 72.0 °F 96% 29.99 in 1.0 mi Calm Calm - N/A   Clear
2:42 AM 71.1 °F - 70.0 °F 96% 29.99 in 0.8 mi Calm Calm - N/A   Mist
2:53 AM 72.0 °F - 70.0 °F 93% 29.96 in 0.2 mi Calm Calm - N/A Fog Fog
3:19 AM 71.1 °F - 69.1 °F 93% 29.99 in 0.5 mi Calm Calm - N/A Fog Fog
3:23 AM 71.1 °F - 69.1 °F 93% 29.99 in 0.2 mi Calm Calm - N/A Fog Fog
3:39 AM 72.0 °F - 70.0 °F 93% 29.98 in 1.0 mi Calm Calm - N/A   Mist
3:46 AM 71.1 °F - 70.0 °F 96% 29.98 in 0.2 mi Calm Calm - N/A Fog Fog
3:53 AM 72.0 °F - 70.0 °F 93% 29.96 in 0.2 mi Calm Calm - N/A Fog Fog
4:07 AM 72.0 °F - 70.0 °F 93% 29.98 in 0.2 mi Calm Calm - N/A Fog Fog
4:19 AM 72.0 °F - 70.0 °F 93% 29.98 in 0.2 mi Calm Calm - N/A Fog Fog
4:30 AM 72.0 °F - 70.0 °F 93% 29.98 in 0.2 mi Calm Calm - N/A Fog Fog
4:43 AM 73.0 °F - 71.1 °F 93% 29.98 in 0.5 mi Calm Calm - N/A Fog Fog
5:01 AM 73.0 °F - 71.1 °F 93% 29.98 in 0.2 mi Calm Calm - N/A Fog Fog
5:19 AM 73.9 °F - 71.1 °F 91% 29.98 in 0.5 mi Calm Calm - N/A Fog Fog
5:50 AM 73.4 °F - 71.6 °F 94% 29.98 in 0.2 mi Calm Calm - N/A Fog Fog
5:53 AM 73.0 °F - 71.1 °F 93% 29.96 in 0.2 mi Calm Calm - N/A Fog Fog
6:00 AM 73.9 °F - 71.1 °F 91% 29.99 in 0.2 mi Calm Calm - N/A Fog Fog
6:05 AM 73.0 °F - 71.1 °F 93% 29.99 in 1.0 mi Calm Calm - N/A   Mist
6:09 AM 73.0 °F - 71.1 °F 93% 29.99 in 3.0 mi ESE 3.5 mph - N/A   Mostly Cloudy
6:21 AM 73.0 °F - 71.1 °F 93% 29.99 in 2.5 mi Calm Calm - N/A   Scattered Clouds
6:28 AM 72.0 °F - 71.1 °F 97% 29.99 in 1.0 mi Calm Calm - N/A   Mist
6:35 AM 72.0 °F - 70.0 °F 93% 29.99 in 0.5 mi Calm Calm - N/A Fog Fog
6:46 AM 72.0 °F - 70.0 °F 93% 29.99 in 0.8 mi ESE 3.5 mph - N/A   Mist
6:48 AM 73.4 °F - 69.8 °F 88% 29.99 in 1.5 mi ESE 3.5 mph - N/A   Scattered Clouds
6:50 AM 73.4 °F - 69.8 °F 88% 29.99 in 3.0 mi Calm Calm - N/A   Scattered Clouds
6:53 AM 72.0 °F - 70.0 °F 93% 29.97 in 4.0 mi Calm Calm - N/A   Mostly Cloudy
6:58 AM 72.0 °F - 69.1 °F 91% 30.00 in 1.8 mi Calm Calm - N/A   Mostly Cloudy
7:09 AM 73.0 °F - 71.1 °F 93% 30.00 in 0.5 mi Calm Calm - N/A Fog Fog
7:17 AM 73.0 °F - 71.1 °F 93% 30.00 in 0.2 mi Calm Calm - N/A Fog Fog
7:29 AM 73.0 °F - 71.1 °F 93% 30.00 in 0.2 mi Calm Calm - N/A Fog Fog
7:53 AM 73.9 °F - 72.0 °F 93% 29.97 in 0.2 mi Calm Calm - N/A Fog Fog
7:58 AM 73.9 °F - 72.0 °F 93% 29.99 in 1.0 mi ESE 3.5 mph - N/A   Overcast
8:13 AM 75.0 °F - 72.0 °F 90% 29.99 in 3.0 mi SSE 3.5 mph - N/A   Mostly Cloudy
8:25 AM 75.0 °F - 72.0 °F 90% 30.00 in 4.0 mi SSE 3.5 mph - N/A   Mostly Cloudy
8:53 AM 75.0 °F - 72.0 °F 90% 29.97 in 9.0 mi SE 3.5 mph - N/A   Overcast
9:40 AM 77.0 °F - 72.0 °F 84% 30.00 in 10.0 mi SSE 3.5 mph - N/A   Mostly Cloudy
9:53 AM 77.0 °F - 72.0 °F 84% 29.98 in 10.0 mi SE 4.6 mph - N/A   Mostly Cloudy
10:10 AM 78.1 °F - 72.0 °F 81% 30.00 in 10.0 mi SE 3.5 mph - N/A   Overcast
11:18 AM 82.0 °F 87.4 °F 73.0 °F 74% 30.01 in 10.0 mi ESE 4.6 mph - N/A   Mostly Cloudy
11:53 AM 84.0 °F 89.6 °F 72.0 °F 67% 29.99 in 10.0 mi South 4.6 mph - N/A   Clear
12:53 PM 84.9 °F 91.4 °F 73.0 °F 67% 29.98 in 10.0 mi Variable 3.5 mph - N/A   Partly Cloudy
1:53 PM 84.9 °F 92.1 °F 73.9 °F 69% 29.97 in 10.0 mi SSE 5.8 mph - N/A   Partly Cloudy
2:53 PM 87.1 °F 95.4 °F 73.9 °F 65% 29.96 in 10.0 mi Variable 4.6 mph - N/A   Clear
3:51 PM 87.8 °F 97.6 °F 75.2 °F 66% 29.96 in 10.0 mi SSE 5.8 mph - N/A Thunderstorm Thunderstorm
3:53 PM 87.1 °F 96.3 °F 75.0 °F 67% 29.94 in 10.0 mi SSE 4.6 mph - N/A Thunderstorm Thunderstorm
4:02 PM 86.0 °F 96.0 °F 75.9 °F 72% 29.96 in 2.0 mi SSE 5.8 mph - N/A Thunderstorm Unknown
4:07 PM 86.0 °F 96.0 °F 75.9 °F 72% 29.95 in 7.0 mi SSE 5.8 mph - N/A Thunderstorm Clear
5:24 PM 81.0 °F 85.8 °F 73.0 °F 77% 29.94 in 2.5 mi NNW 5.8 mph - 0.07 in Rain , Thunderstorm Light Thunderstorms and Rain
5:27 PM 79.0 °F - 73.9 °F 84% 29.94 in 0.8 mi WNW 6.9 mph - 0.21 in Rain , Thunderstorm Heavy Thunderstorms and Rain
5:41 PM 78.1 °F - 75.0 °F 90% 29.95 in 2.0 mi WNW 5.8 mph - 0.33 in Rain , Thunderstorm Thunderstorms and Rain
5:46 PM 78.1 °F - 73.9 °F 87% 29.96 in 1.8 mi WNW 8.1 mph - 0.39 in Rain , Thunderstorm Heavy Rain
5:53 PM 77.0 °F - 72.0 °F 84% 29.93 in 0.8 mi West 3.5 mph - 0.51 in Rain , Thunderstorm Heavy Thunderstorms and Rain
6:01 PM 77.0 °F - 73.0 °F 88% 29.99 in 2.0 mi NW 13.8 mph 26.5 mph 0.02 in Rain , Thunderstorm Light Thunderstorms and Rain
6:05 PM 75.9 °F - 72.0 °F 87% 29.99 in 4.0 mi NW 17.3 mph 26.5 mph 0.05 in Rain , Thunderstorm Rain
6:12 PM 73.9 °F - 71.1 °F 91% 30.00 in 2.5 mi NNW 9.2 mph 26.5 mph 0.12 in Rain , Thunderstorm Heavy Rain
6:24 PM 73.0 °F - 71.1 °F 93% 29.99 in 2.5 mi North 16.1 mph 25.3 mph 0.22 in Rain , Thunderstorm Heavy Thunderstorms and Rain
6:32 PM 73.0 °F - 70.0 °F 90% 29.99 in 1.8 mi North 16.1 mph 25.3 mph 0.33 in Rain , Thunderstorm Heavy Thunderstorms and Rain
6:34 PM 73.0 °F - 70.0 °F 90% 29.99 in 2.0 mi North 17.3 mph 25.3 mph 0.35 in Rain , Thunderstorm Heavy Thunderstorms and Rain
6:44 PM 73.0 °F - 69.1 °F 87% 30.00 in 8.0 mi NNE 12.7 mph - 0.37 in Rain , Thunderstorm Light Thunderstorms and Rain
6:53 PM 73.0 °F - 70.0 °F 90% 29.97 in 10.0 mi NNE 10.4 mph - 0.37 in Rain , Thunderstorm Light Thunderstorms and Rain
7:00 PM 73.0 °F - 69.1 °F 87% 29.97 in 10.0 mi NE 16.1 mph - 0.00 in Rain , Thunderstorm Light Rain
7:08 PM 73.0 °F - 69.1 °F 87% 29.95 in 10.0 mi NNE 13.8 mph 23.0 mph 0.01 in Rain , Thunderstorm Light Thunderstorms and Rain
7:44 PM 73.9 °F - 71.1 °F 91% 29.94 in 10.0 mi NE 15.0 mph 28.8 mph 0.03 in Rain Light Rain
7:53 PM 73.9 °F - 71.1 °F 91% 29.93 in 10.0 mi ENE 17.3 mph 23.0 mph 0.03 in Rain Light Rain
8:53 PM 73.9 °F - 71.1 °F 91% 29.96 in 10.0 mi ESE 5.8 mph - 0.00 in   Clear
9:53 PM 73.0 °F - 71.1 °F 93% 29.95 in 10.0 mi SE 6.9 mph - N/A   Clear
11:53 PM 72.0 °F - 70.0 °F 93% 29.96 in 10.0 mi West 3.5 mph - N/A   Clear